AAR30 RCTP-RPLL

Flight info

Callsign AAR30
Flight time 1h 51m
Altitude 34000
Route TINHO1A TINHO Q11 POTIB M646 LAO B462 CAB CAB7R
Aircraft A321/M-SDE3FGHIRWY/LB1

Departure

Time 2026-05-07 14:03
Airport Taiwan Taoyuan International Airport (RCTP)

Arrival

Time 2026-05-07 15:54
Airport Ninoy Aquino International Airport (RPLL)
Time Latitude Longitude Altitude Speed Heading
2026-05-07 13:35 25.07512 121.23318 101 ft 0 kts 319°
2026-05-07 13:53 25.07499 121.23331 99 ft 4 kts 319°
2026-05-07 13:53 25.07478 121.23350 101 ft 4 kts 319°
2026-05-07 13:53 25.07458 121.23370 100 ft 4 kts 319°
2026-05-07 13:54 25.07439 121.23388 101 ft 2 kts 319°
2026-05-07 13:54 25.07427 121.23404 101 ft 4 kts 261°
2026-05-07 13:54 25.07437 121.23426 101 ft 4 kts 229°
2026-05-07 13:54 25.07452 121.23445 100 ft 1 kts 229°
2026-05-07 13:56 25.07450 121.23442 101 ft 1 kts 229°
2026-05-07 13:57 25.07435 121.23423 100 ft 6 kts 229°
2026-05-07 13:57 25.07399 121.23376 99 ft 10 kts 229°
2026-05-07 13:57 25.07349 121.23312 101 ft 11 kts 229°
2026-05-07 13:57 25.07295 121.23243 101 ft 12 kts 229°
2026-05-07 13:58 25.07229 121.23186 101 ft 13 kts 186°
2026-05-07 13:58 25.07152 121.23232 99 ft 13 kts 141°
2026-05-07 13:58 25.07069 121.23269 100 ft 14 kts 194°
2026-05-07 13:58 25.06998 121.23195 100 ft 15 kts 230°
2026-05-07 13:59 25.06930 121.23107 100 ft 15 kts 229°
2026-05-07 13:59 25.06857 121.23015 100 ft 16 kts 229°
2026-05-07 13:59 25.06782 121.22920 100 ft 17 kts 229°
2026-05-07 13:59 25.06702 121.22819 101 ft 18 kts 229°
2026-05-07 14:00 25.06621 121.22716 101 ft 18 kts 229°
2026-05-07 14:00 25.06537 121.22610 99 ft 19 kts 229°
2026-05-07 14:00 25.06452 121.22501 100 ft 19 kts 229°
2026-05-07 14:00 25.06365 121.22391 100 ft 19 kts 229°
2026-05-07 14:01 25.06287 121.22292 101 ft 11 kts 229°
2026-05-07 14:01 25.06230 121.22248 102 ft 11 kts 187°
2026-05-07 14:01 25.06164 121.22289 98 ft 13 kts 140°
2026-05-07 14:01 25.06115 121.22375 97 ft 14 kts 90°
2026-05-07 14:02 25.06172 121.22468 96 ft 16 kts 49°
2026-05-07 14:02 25.06343 121.22686 95 ft 71 kts 49°
2026-05-07 14:02 25.06813 121.23280 95 ft 132 kts 49°
2026-05-07 14:02 25.07528 121.24185 99 ft 178 kts 49°
2026-05-07 14:03 25.08359 121.25231 632 ft 181 kts 50°
2026-05-07 14:03 25.09166 121.26299 1257 ft 182 kts 52°
2026-05-07 14:03 25.10016 121.27429 1431 ft 202 kts 52°
2026-05-07 14:03 25.10968 121.28686 1555 ft 225 kts 51°
2026-05-07 14:04 25.12056 121.30063 1711 ft 250 kts 49°
2026-05-07 14:04 25.13295 121.31512 2090 ft 265 kts 47°
2026-05-07 14:04 25.14596 121.32991 2712 ft 271 kts 46°
2026-05-07 14:04 25.15923 121.34491 3373 ft 275 kts 45°
2026-05-07 14:05 25.17274 121.36017 4015 ft 280 kts 45°
2026-05-07 14:05 25.18641 121.37569 4666 ft 284 kts 45°
2026-05-07 14:05 25.20024 121.39152 5306 ft 288 kts 45°
2026-05-07 14:05 25.21423 121.40762 5946 ft 292 kts 45°
2026-05-07 14:06 25.22838 121.42395 6563 ft 297 kts 46°
2026-05-07 14:06 25.24046 121.44252 7144 ft 301 kts 67°
2026-05-07 14:06 25.24538 121.46490 7741 ft 302 kts 91°
2026-05-07 14:06 25.24208 121.48758 8338 ft 300 kts 115°
2026-05-07 14:07 25.23111 121.50681 8936 ft 297 kts 139°
2026-05-07 14:07 25.21445 121.51987 9536 ft 294 kts 155°
2026-05-07 14:07 25.19632 121.53069 10090 ft 300 kts 155°
2026-05-07 14:07 25.17732 121.54188 10223 ft 319 kts 155°
2026-05-07 14:08 25.15710 121.55374 10349 ft 340 kts 155°
2026-05-07 14:08 25.13567 121.56634 10515 ft 356 kts 155°
2026-05-07 14:08 25.11357 121.57941 10898 ft 363 kts 154°
2026-05-07 14:08 25.09125 121.59269 11390 ft 367 kts 154°
2026-05-07 14:09 25.06870 121.60615 11889 ft 371 kts 154°
2026-05-07 14:09 25.04587 121.61976 12386 ft 375 kts 154°
2026-05-07 14:09 25.02284 121.63348 12889 ft 378 kts 154°
2026-05-07 14:09 24.99957 121.64730 13376 ft 382 kts 155°
2026-05-07 14:10 24.97605 121.66124 13845 ft 385 kts 155°
2026-05-07 14:10 24.95233 121.67528 14290 ft 389 kts 155°
2026-05-07 14:10 24.92872 121.68927 14751 ft 392 kts 154°
2026-05-07 14:10 24.90465 121.70355 15228 ft 394 kts 154°
2026-05-07 14:11 24.88044 121.71790 15727 ft 396 kts 155°
2026-05-07 14:11 24.85606 121.73229 16215 ft 399 kts 155°
2026-05-07 14:11 24.83154 121.74674 16687 ft 401 kts 155°
2026-05-07 14:11 24.80689 121.76128 17165 ft 403 kts 155°
2026-05-07 14:12 24.78214 121.77589 17635 ft 405 kts 155°
2026-05-07 14:12 24.75724 121.79058 18102 ft 407 kts 155°
2026-05-07 14:12 24.73220 121.80534 18520 ft 409 kts 155°
2026-05-07 14:12 24.70707 121.82017 18934 ft 411 kts 155°
2026-05-07 14:13 24.68177 121.83507 19336 ft 413 kts 155°
2026-05-07 14:13 24.65634 121.85004 19734 ft 416 kts 155°
2026-05-07 14:13 24.63076 121.86510 20121 ft 418 kts 155°
2026-05-07 14:13 24.60502 121.88025 20504 ft 421 kts 155°
2026-05-07 14:14 24.57912 121.89551 20879 ft 423 kts 155°
2026-05-07 14:14 24.55311 121.91086 21237 ft 426 kts 155°
2026-05-07 14:14 24.52694 121.92631 21594 ft 428 kts 155°
2026-05-07 14:14 24.50060 121.94182 21946 ft 431 kts 155°
2026-05-07 14:15 24.47410 121.95735 22284 ft 433 kts 155°
2026-05-07 14:15 24.44747 121.97293 22612 ft 435 kts 155°
2026-05-07 14:15 24.42068 121.98859 22942 ft 437 kts 155°
2026-05-07 14:15 24.39317 122.00276 23256 ft 436 kts 163°
2026-05-07 14:16 24.36403 122.01154 23568 ft 433 kts 174°
2026-05-07 14:16 24.33416 122.01448 23821 ft 431 kts 184°
2026-05-07 14:16 24.30443 122.01165 24053 ft 428 kts 194°
2026-05-07 14:16 24.27565 122.00352 24310 ft 427 kts 200°
2026-05-07 14:17 24.24710 121.99408 24568 ft 429 kts 200°
2026-05-07 14:17 24.21842 121.98470 24835 ft 431 kts 200°
2026-05-07 14:17 24.18965 121.97532 25108 ft 433 kts 200°
2026-05-07 14:17 24.16073 121.96590 25368 ft 434 kts 200°
2026-05-07 14:18 24.13167 121.95646 25641 ft 436 kts 200°
2026-05-07 14:18 24.10251 121.94699 25902 ft 438 kts 200°
2026-05-07 14:18 24.07322 121.93750 26155 ft 440 kts 200°
2026-05-07 14:18 24.04379 121.92795 26383 ft 442 kts 200°
2026-05-07 14:19 24.01462 121.91846 26618 ft 444 kts 200°
2026-05-07 14:19 23.98493 121.90879 26868 ft 446 kts 200°
2026-05-07 14:19 23.95510 121.89906 27119 ft 448 kts 200°
2026-05-07 14:19 23.92520 121.88927 27359 ft 450 kts 200°
2026-05-07 14:20 23.89518 121.87945 27598 ft 451 kts 200°
2026-05-07 14:20 23.86502 121.86967 27843 ft 453 kts 200°
2026-05-07 14:20 23.83472 121.85989 28077 ft 455 kts 200°
2026-05-07 14:20 23.80434 121.85009 28296 ft 457 kts 200°
2026-05-07 14:21 23.77380 121.84022 28526 ft 459 kts 200°
2026-05-07 14:21 23.74314 121.83029 28761 ft 460 kts 200°
2026-05-07 14:21 23.71237 121.82032 28992 ft 462 kts 200°
2026-05-07 14:21 23.68149 121.81031 29233 ft 464 kts 200°
2026-05-07 14:22 23.65052 121.80028 29470 ft 466 kts 200°
2026-05-07 14:22 23.61942 121.79023 29794 ft 465 kts 200°
2026-05-07 14:22 23.58849 121.78026 30155 ft 463 kts 200°
2026-05-07 14:22 23.55762 121.77029 30413 ft 463 kts 200°
2026-05-07 14:23 23.52673 121.76029 30641 ft 464 kts 200°
2026-05-07 14:23 23.49575 121.75025 30878 ft 464 kts 200°
2026-05-07 14:23 23.46479 121.74021 31127 ft 465 kts 200°
2026-05-07 14:23 23.43379 121.73015 31373 ft 465 kts 200°
2026-05-07 14:24 23.40279 121.72011 31624 ft 465 kts 200°
2026-05-07 14:24 23.37175 121.71008 31872 ft 465 kts 200°
2026-05-07 14:24 23.34072 121.70006 32122 ft 465 kts 200°
2026-05-07 14:24 23.30964 121.69005 32353 ft 466 kts 200°
2026-05-07 14:25 23.27854 121.68004 32590 ft 466 kts 200°
2026-05-07 14:25 23.24742 121.67003 32820 ft 467 kts 200°
2026-05-07 14:25 23.21627 121.66003 33054 ft 467 kts 200°
2026-05-07 14:25 23.18508 121.65001 33296 ft 467 kts 200°
2026-05-07 14:26 23.15392 121.63998 33537 ft 467 kts 200°
2026-05-07 14:26 23.12315 121.63008 33775 ft 468 kts 200°
2026-05-07 14:26 23.09191 121.62005 33940 ft 468 kts 200°
2026-05-07 14:27 23.02975 121.60012 33967 ft 465 kts 200°
2026-05-07 14:27 22.96774 121.58028 33964 ft 464 kts 200°
2026-05-07 14:28 22.90579 121.56050 33961 ft 464 kts 200°
2026-05-07 14:28 22.84388 121.54071 33961 ft 464 kts 200°
2026-05-07 14:29 22.78192 121.52094 33947 ft 464 kts 200°
2026-05-07 14:29 22.71987 121.50109 33947 ft 465 kts 200°
2026-05-07 14:30 22.65829 121.47983 33950 ft 463 kts 206°
2026-05-07 14:30 22.59865 121.45347 33951 ft 463 kts 206°
2026-05-07 14:31 22.53895 121.42724 33950 ft 463 kts 205°
2026-05-07 14:31 22.47919 121.40104 33951 ft 464 kts 205°
2026-05-07 14:32 22.41978 121.37498 33955 ft 464 kts 205°
2026-05-07 14:32 22.35990 121.34869 33973 ft 465 kts 205°
2026-05-07 14:33 22.29998 121.32238 33973 ft 465 kts 205°
2026-05-07 14:33 22.23995 121.29614 33955 ft 466 kts 205°
2026-05-07 14:34 22.17986 121.26989 33968 ft 466 kts 205°
2026-05-07 14:34 22.11969 121.24360 33963 ft 467 kts 205°
2026-05-07 14:35 22.05951 121.21727 33971 ft 467 kts 205°
2026-05-07 14:35 21.99924 121.19099 33977 ft 467 kts 205°
2026-05-07 14:36 21.93895 121.16470 33975 ft 468 kts 205°
2026-05-07 14:36 21.87861 121.13839 33980 ft 468 kts 205°
2026-05-07 14:37 21.81825 121.11211 33977 ft 468 kts 205°
2026-05-07 14:37 21.72765 121.07276 33970 ft 468 kts 205°
2026-05-07 14:38 21.66721 121.04656 33970 ft 468 kts 205°
2026-05-07 14:38 21.60682 121.02035 33972 ft 468 kts 205°
2026-05-07 14:39 21.54642 120.99415 33967 ft 468 kts 205°
2026-05-07 14:39 21.48599 120.96800 33954 ft 469 kts 204°
2026-05-07 14:40 21.42584 120.94199 33965 ft 469 kts 204°
2026-05-07 14:40 21.36529 120.91584 33969 ft 469 kts 204°
2026-05-07 14:41 21.30477 120.88965 33972 ft 469 kts 204°
2026-05-07 14:41 21.24426 120.86355 33966 ft 469 kts 204°
2026-05-07 14:42 21.18376 120.83744 33961 ft 469 kts 204°
2026-05-07 14:42 21.12321 120.81130 33963 ft 469 kts 204°
2026-05-07 14:43 21.06259 120.78527 33966 ft 469 kts 204°
2026-05-07 14:43 21.00125 120.76134 33966 ft 471 kts 195°
2026-05-07 14:44 20.93593 120.75324 33957 ft 474 kts 186°
2026-05-07 14:44 20.87012 120.74784 33960 ft 475 kts 186°
2026-05-07 14:45 20.81541 120.74321 33960 ft 475 kts 186°
2026-05-07 14:45 20.73880 120.73680 33965 ft 475 kts 186°
2026-05-07 14:46 20.67287 120.73133 33953 ft 475 kts 186°
2026-05-07 14:46 20.60691 120.72588 33956 ft 476 kts 186°
2026-05-07 14:47 20.55163 120.72132 33962 ft 476 kts 186°
2026-05-07 14:47 20.48557 120.71595 33963 ft 476 kts 186°
2026-05-07 14:48 20.41957 120.71055 33963 ft 476 kts 186°
2026-05-07 14:48 20.35403 120.70510 33962 ft 476 kts 186°
2026-05-07 14:49 20.28800 120.69965 33957 ft 476 kts 186°
2026-05-07 14:49 20.22189 120.69426 33959 ft 476 kts 186°
2026-05-07 14:50 20.15585 120.68882 33960 ft 476 kts 186°
2026-05-07 14:50 20.08971 120.68348 33955 ft 477 kts 185°
2026-05-07 14:51 20.02360 120.67812 33956 ft 477 kts 185°
2026-05-07 14:51 19.95740 120.67274 33958 ft 477 kts 185°
2026-05-07 14:52 19.89124 120.66730 33957 ft 477 kts 185°
2026-05-07 14:52 19.82499 120.66187 33956 ft 477 kts 185°
2026-05-07 14:53 19.75879 120.65643 33955 ft 477 kts 185°
2026-05-07 14:53 19.69255 120.65108 33956 ft 477 kts 185°
2026-05-07 14:54 19.62630 120.64571 33957 ft 477 kts 185°
2026-05-07 14:54 19.56006 120.64031 33952 ft 477 kts 185°
2026-05-07 14:55 19.49426 120.63498 33953 ft 477 kts 185°
2026-05-07 14:55 19.42797 120.62968 33951 ft 478 kts 185°
2026-05-07 14:56 19.36174 120.62427 33952 ft 477 kts 186°
2026-05-07 14:56 19.29549 120.61889 33949 ft 477 kts 185°
2026-05-07 14:57 19.22925 120.61351 33946 ft 477 kts 185°
2026-05-07 14:57 19.16304 120.60811 33946 ft 477 kts 185°
2026-05-07 14:58 19.09683 120.60283 33945 ft 477 kts 185°
2026-05-07 14:58 19.03061 120.59755 33944 ft 477 kts 185°
2026-05-07 14:59 18.96446 120.59213 33935 ft 477 kts 186°
2026-05-07 14:59 18.89827 120.58677 33936 ft 477 kts 186°
2026-05-07 15:00 18.83207 120.58143 33929 ft 477 kts 186°
2026-05-07 15:00 18.76587 120.57608 33926 ft 477 kts 186°
2026-05-07 15:01 18.69962 120.57084 33924 ft 477 kts 186°
2026-05-07 15:01 18.63344 120.56554 33919 ft 477 kts 186°
2026-05-07 15:02 18.56773 120.56023 33920 ft 477 kts 186°
2026-05-07 15:02 18.50158 120.55495 33917 ft 477 kts 186°
2026-05-07 15:03 18.43544 120.54959 33918 ft 477 kts 186°
2026-05-07 15:03 18.36930 120.54422 33911 ft 476 kts 186°
2026-05-07 15:04 18.30320 120.53892 33912 ft 477 kts 186°
2026-05-07 15:04 18.23706 120.53369 33908 ft 477 kts 186°
2026-05-07 15:05 18.17082 120.53136 33908 ft 478 kts 176°
2026-05-07 15:05 18.10512 120.54273 33899 ft 479 kts 171°
2026-05-07 15:06 18.03955 120.55511 33911 ft 479 kts 171°
2026-05-07 15:06 17.97400 120.56727 33916 ft 478 kts 171°
2026-05-07 15:07 17.90848 120.57930 33919 ft 478 kts 171°
2026-05-07 15:07 17.84294 120.59137 33921 ft 478 kts 171°
2026-05-07 15:08 17.77750 120.60339 33924 ft 477 kts 171°
2026-05-07 15:08 17.71217 120.61542 33927 ft 476 kts 171°
2026-05-07 15:09 17.64694 120.62747 33951 ft 476 kts 171°
2026-05-07 15:09 17.58221 120.63941 33950 ft 475 kts 171°
2026-05-07 15:10 17.51703 120.65144 33957 ft 476 kts 171°
2026-05-07 15:10 17.45183 120.66351 33956 ft 476 kts 171°
2026-05-07 15:11 17.38673 120.67552 33964 ft 475 kts 171°
2026-05-07 15:11 17.32164 120.68749 33975 ft 475 kts 171°
2026-05-07 15:12 17.25661 120.69953 33972 ft 474 kts 171°
2026-05-07 15:12 17.19162 120.71152 33981 ft 474 kts 171°
2026-05-07 15:13 17.12661 120.72350 33984 ft 474 kts 171°
2026-05-07 15:13 17.06167 120.73548 33998 ft 474 kts 171°
2026-05-07 15:14 16.99673 120.74743 34024 ft 474 kts 171°
2026-05-07 15:14 16.93182 120.75939 34028 ft 474 kts 171°
2026-05-07 15:15 16.86689 120.77138 34027 ft 474 kts 171°
2026-05-07 15:15 16.80205 120.78338 34036 ft 473 kts 171°
2026-05-07 15:16 16.73717 120.79526 34040 ft 473 kts 171°
2026-05-07 15:16 16.67239 120.80711 34031 ft 472 kts 171°
2026-05-07 15:17 16.60768 120.81899 34033 ft 472 kts 171°
2026-05-07 15:17 16.54301 120.83087 34019 ft 472 kts 171°
2026-05-07 15:18 16.47836 120.84272 34023 ft 471 kts 171°
2026-05-07 15:18 16.41376 120.85454 34011 ft 471 kts 171°
2026-05-07 15:19 16.34928 120.86631 34008 ft 470 kts 171°
2026-05-07 15:19 16.28487 120.87811 33993 ft 470 kts 170°
2026-05-07 15:20 16.22052 120.88991 33987 ft 469 kts 171°
2026-05-07 15:20 16.15617 120.90164 33967 ft 470 kts 171°
2026-05-07 15:21 16.09227 120.91338 33967 ft 470 kts 170°
2026-05-07 15:21 16.02788 120.92519 33966 ft 470 kts 171°
2026-05-07 15:22 15.96345 120.93689 33968 ft 470 kts 171°
2026-05-07 15:22 15.89903 120.94855 33957 ft 470 kts 171°
2026-05-07 15:23 15.83473 120.96025 33965 ft 469 kts 171°
2026-05-07 15:23 15.77052 120.97195 33955 ft 468 kts 171°
2026-05-07 15:24 15.70645 120.98364 33952 ft 467 kts 171°
2026-05-07 15:24 15.64236 120.99530 33942 ft 467 kts 171°
2026-05-07 15:25 15.57838 121.00689 33935 ft 467 kts 171°
2026-05-07 15:25 15.54636 121.01269 33752 ft 466 kts 171°
2026-05-07 15:25 15.51458 121.01784 33487 ft 457 kts 176°
2026-05-07 15:26 15.48321 121.01790 33233 ft 446 kts 187°
2026-05-07 15:26 15.45315 121.01226 32945 ft 434 kts 197°
2026-05-07 15:26 15.42488 121.00208 32229 ft 427 kts 202°
2026-05-07 15:26 15.39736 120.99116 31677 ft 420 kts 202°
2026-05-07 15:27 15.37023 120.98039 31166 ft 415 kts 202°
2026-05-07 15:27 15.34338 120.96977 30781 ft 412 kts 202°
2026-05-07 15:27 15.31658 120.95922 30305 ft 412 kts 202°
2026-05-07 15:27 15.28991 120.94874 29800 ft 409 kts 202°
2026-05-07 15:28 15.26336 120.93832 29309 ft 406 kts 202°
2026-05-07 15:28 15.23748 120.92818 28855 ft 401 kts 201°
2026-05-07 15:28 15.21155 120.91802 28390 ft 398 kts 201°
2026-05-07 15:28 15.18573 120.90791 27933 ft 395 kts 201°
2026-05-07 15:29 15.15978 120.89774 27486 ft 390 kts 201°
2026-05-07 15:29 15.13455 120.88785 27046 ft 386 kts 201°
2026-05-07 15:29 15.10979 120.87813 26628 ft 385 kts 201°
2026-05-07 15:29 15.08479 120.86831 26207 ft 384 kts 201°
2026-05-07 15:30 15.05983 120.85852 25780 ft 383 kts 201°
2026-05-07 15:30 15.03501 120.84882 25373 ft 380 kts 201°
2026-05-07 15:30 15.01043 120.83924 24965 ft 374 kts 201°
2026-05-07 15:30 14.98620 120.82981 24573 ft 371 kts 201°
2026-05-07 15:31 14.96207 120.82041 24172 ft 369 kts 201°
2026-05-07 15:31 14.93807 120.81105 23786 ft 368 kts 201°
2026-05-07 15:31 14.91425 120.80174 23374 ft 364 kts 200°
2026-05-07 15:31 14.89069 120.79253 22962 ft 360 kts 200°
2026-05-07 15:32 14.86739 120.78341 22564 ft 357 kts 200°
2026-05-07 15:32 14.84428 120.77435 22173 ft 354 kts 200°
2026-05-07 15:32 14.82134 120.76538 21780 ft 351 kts 200°
2026-05-07 15:32 14.79855 120.75649 21375 ft 349 kts 200°
2026-05-07 15:33 14.77589 120.74768 20982 ft 347 kts 200°
2026-05-07 15:33 14.75332 120.73890 20575 ft 346 kts 199°
2026-05-07 15:33 14.73084 120.73015 20164 ft 345 kts 199°
2026-05-07 15:33 14.70839 120.72140 19753 ft 344 kts 199°
2026-05-07 15:34 14.68597 120.71266 19338 ft 344 kts 199°
2026-05-07 15:34 14.66361 120.70395 18937 ft 344 kts 199°
2026-05-07 15:34 14.64135 120.69611 18803 ft 332 kts 190°
2026-05-07 15:34 14.61886 120.69410 18635 ft 321 kts 174°
2026-05-07 15:35 14.59713 120.69826 18178 ft 319 kts 158°
2026-05-07 15:35 14.58389 120.70438 17871 ft 312 kts 148°
2026-05-07 15:35 14.56515 120.71553 17328 ft 309 kts 148°
2026-05-07 15:35 14.54656 120.72635 16822 ft 302 kts 152°
2026-05-07 15:36 14.52627 120.73107 16498 ft 304 kts 183°
2026-05-07 15:36 14.50624 120.72420 16295 ft 310 kts 212°
2026-05-07 15:36 14.49116 120.70859 15786 ft 307 kts 233°
2026-05-07 15:36 14.47970 120.69008 15370 ft 306 kts 239°
2026-05-07 15:37 14.46971 120.67080 14947 ft 303 kts 242°
2026-05-07 15:37 14.46023 120.65150 14532 ft 301 kts 241°
2026-05-07 15:37 14.45069 120.63240 14124 ft 298 kts 240°
2026-05-07 15:37 14.44098 120.61365 13722 ft 294 kts 239°
2026-05-07 15:38 14.43114 120.59532 13303 ft 291 kts 239°
2026-05-07 15:38 14.42122 120.57725 12903 ft 288 kts 238°
2026-05-07 15:38 14.41132 120.55945 12514 ft 285 kts 238°
2026-05-07 15:38 14.40144 120.54178 12137 ft 284 kts 238°
2026-05-07 15:39 14.39160 120.52422 11757 ft 282 kts 238°
2026-05-07 15:39 14.38187 120.50681 11409 ft 279 kts 238°
2026-05-07 15:39 14.37220 120.48951 11035 ft 277 kts 238°
2026-05-07 15:39 14.36262 120.47238 10714 ft 275 kts 238°
2026-05-07 15:40 14.35225 120.45601 10358 ft 270 kts 223°
2026-05-07 15:40 14.33675 120.44618 10006 ft 259 kts 191°
2026-05-07 15:40 14.31957 120.44586 9726 ft 248 kts 161°
2026-05-07 15:40 14.30416 120.45324 9463 ft 242 kts 147°
2026-05-07 15:41 14.28992 120.46158 9214 ft 228 kts 147°
2026-05-07 15:41 14.27655 120.46942 8969 ft 214 kts 146°
2026-05-07 15:41 14.26391 120.47684 8751 ft 206 kts 146°
2026-05-07 15:41 14.25155 120.48410 8544 ft 204 kts 146°
2026-05-07 15:42 14.23967 120.49185 8332 ft 200 kts 134°
2026-05-07 15:42 14.23218 120.50347 8130 ft 194 kts 106°
2026-05-07 15:42 14.23111 120.51711 7943 ft 192 kts 80°
2026-05-07 15:42 14.23618 120.52983 7763 ft 193 kts 61°
2026-05-07 15:43 14.24290 120.54181 7582 ft 193 kts 61°
2026-05-07 15:43 14.24957 120.55376 7388 ft 192 kts 61°
2026-05-07 15:43 14.25623 120.56569 7198 ft 192 kts 61°
2026-05-07 15:43 14.26286 120.57759 7018 ft 191 kts 61°
2026-05-07 15:44 14.26946 120.58944 6832 ft 190 kts 61°
2026-05-07 15:44 14.27606 120.60125 6655 ft 190 kts 61°
2026-05-07 15:44 14.28262 120.61301 6456 ft 189 kts 60°
2026-05-07 15:44 14.28915 120.62475 6285 ft 188 kts 60°
2026-05-07 15:45 14.29564 120.63644 6100 ft 188 kts 61°
2026-05-07 15:45 14.30211 120.64807 5915 ft 187 kts 61°
2026-05-07 15:45 14.30857 120.65968 5723 ft 187 kts 61°
2026-05-07 15:45 14.31498 120.67131 5551 ft 186 kts 62°
2026-05-07 15:46 14.32764 120.69443 5195 ft 185 kts 61°
2026-05-07 15:46 14.33401 120.70588 5021 ft 184 kts 61°
2026-05-07 15:46 14.34034 120.71723 4903 ft 179 kts 61°
2026-05-07 15:47 14.34620 120.72774 4845 ft 165 kts 62°
2026-05-07 15:47 14.35185 120.73787 4801 ft 162 kts 62°
2026-05-07 15:47 14.35745 120.74791 4754 ft 161 kts 62°
2026-05-07 15:47 14.36304 120.75794 4703 ft 161 kts 62°
2026-05-07 15:48 14.36863 120.76798 4662 ft 161 kts 62°
2026-05-07 15:48 14.37420 120.77796 4596 ft 160 kts 62°
2026-05-07 15:48 14.37966 120.78776 4433 ft 156 kts 62°
2026-05-07 15:48 14.38505 120.79744 4251 ft 155 kts 62°
2026-05-07 15:49 14.39040 120.80704 4069 ft 154 kts 62°
2026-05-07 15:49 14.39571 120.81657 3870 ft 153 kts 62°
2026-05-07 15:49 14.40099 120.82604 3679 ft 152 kts 63°
2026-05-07 15:49 14.40620 120.83540 3488 ft 149 kts 63°
2026-05-07 15:50 14.41133 120.84460 3304 ft 148 kts 63°
2026-05-07 15:50 14.41641 120.85373 3111 ft 146 kts 63°
2026-05-07 15:50 14.42151 120.86289 2933 ft 148 kts 64°
2026-05-07 15:50 14.42663 120.87209 2739 ft 148 kts 64°
2026-05-07 15:51 14.43173 120.88125 2554 ft 147 kts 64°
2026-05-07 15:51 14.43680 120.89035 2373 ft 145 kts 64°
2026-05-07 15:51 14.44198 120.89967 2169 ft 155 kts 60°
2026-05-07 15:51 14.44742 120.90944 1968 ft 157 kts 61°
2026-05-07 15:52 14.45288 120.91925 1766 ft 158 kts 62°
2026-05-07 15:52 14.45833 120.92905 1569 ft 158 kts 62°
2026-05-07 15:52 14.46378 120.93884 1386 ft 156 kts 62°
2026-05-07 15:52 14.46916 120.94850 1213 ft 151 kts 62°
2026-05-07 15:53 14.47431 120.95777 1005 ft 147 kts 61°
2026-05-07 15:53 14.47939 120.96691 817 ft 147 kts 61°
2026-05-07 15:53 14.48445 120.97601 629 ft 146 kts 62°
2026-05-07 15:53 14.48947 120.98507 406 ft 145 kts 63°
2026-05-07 15:54 14.49445 120.99407 246 ft 145 kts 62°
2026-05-07 15:54 14.49948 121.00306 97 ft 145 kts 62°
2026-05-07 15:54 14.50411 121.01139 70 ft 117 kts 60°
2026-05-07 15:54 14.50670 121.01595 65 ft 31 kts 59°
2026-05-07 15:55 14.50756 121.01710 61 ft 18 kts 38°
2026-05-07 15:55 14.50823 121.01761 60 ft 0 kts 37°
2026-05-07 15:55 14.50830 121.01766 68 ft 2 kts 37°
2026-05-07 15:56 14.50847 121.01778 62 ft 4 kts 29°
2026-05-07 15:56 14.50898 121.01783 64 ft 11 kts
2026-05-07 15:56 14.50949 121.01819 61 ft 0 kts 54°
2026-05-07 15:56 14.50952 121.01821 61 ft 2 kts 44°
2026-05-07 15:57 14.50973 121.01863 65 ft 10 kts 67°
2026-05-07 15:57 14.51007 121.01926 66 ft 11 kts 59°
2026-05-07 15:57 14.51061 121.01981 63 ft 12 kts
2026-05-07 15:57 14.51128 121.01930 66 ft 13 kts 316°
2026-05-07 15:58 14.51194 121.01860 64 ft 14 kts 314°
2026-05-07 15:58 14.51267 121.01785 66 ft 16 kts 315°
2026-05-07 15:58 14.51346 121.01703 65 ft 17 kts 315°
2026-05-07 15:58 14.51431 121.01616 65 ft 18 kts 315°
2026-05-07 15:59 14.51518 121.01527 67 ft 12 kts 315°
2026-05-07 15:59 14.51577 121.01519 60 ft 9 kts 50°
2026-05-07 15:59 14.51612 121.01560 66 ft 4 kts 45°
2026-05-07 15:59 14.51615 121.01562 69 ft 0 kts 45°